Location: Banska Bystrica
(48.7330°N, 19.1500°E)
Time: 10:17:11
(UTC+02:00)

ISS - Pass Details

Date: 30 March 2019
Orbit: 408 x 410 km, 51.6° (Epoch: 25 April)

Event Time Altitude Azimuth Distance (km) Brightness Sun altitude
Rises 20:51:24 0° 290° (WNW) 2,338 1.2 -24.9°
Reaches altitude 10° 20:53:29 10° 291° (WNW) 1,475 -0.1 -25.2°
Enters shadow 20:55:12 28° 292° (WNW) 804 -1.8 -25.4°
